Regional Weather Roundup
Issued by NWS

Home | Current Version | Previous Version | Text Only | Print | Product List | Glossary Off
Versions: 1 2 3 4 5 6 7 8 9 10 11 12 13 14 15 16 17 18 19 20 21 22 23 24 25 26 27 28 29 30 31 32 33 34 35 36 37 38 39 40 41 42 43 44 45 46 47 48 49 50

000
ASUS45 KTFX 212104
RWRMT
MONTANA HOURLY WEATHER ROUNDUP
NATIONAL WEATHER SERVICE GREAT FALLS MT
304 PM MDT THU AUG 21 2014

NOTE: "FAIR" INDICATES FEW OR NO CLOUDS BELOW 12000 FEET WITH NO
SIGNIFICANT WEATHER AND/OR OBSTRUCTIONS TO VISIBILITY.

* THESE STATIONS ARE NOT UNDER NWS QUALITY CONTROL. THEY DO NOT
   REPORT WEATHER SUCH AS PRECIPITATION OR FOG.

MTZ001>007-043-212200-
WEST OF THE DIVIDE
CITY           SKY/WX    TMP DP  RH WIND       PRES   REMARKS
KALISPELL      CLOUDY    63  48  58 N16       30.07S
MISSOULA       PTCLDY    73  50  44 N21G28    29.99S
BUTTE          TSTM      57  46  67 NE9       30.11R
MULLAN PASS    PTSUNNY   57  54  90 CALM      30.11F
* ESSEX        N/A       57  44  62 SW1G14     N/A
* LINCOLN      N/A       69  51  53 NE4G13     N/A
* LOOKOUT PASS N/A       57  53  87 SE2        N/A
* POLSON       N/A       67  54  63 N4         N/A
* RONAN APT    PTCLDY    68  54  61 S11G17     N/A
* SEELEY LAKE  N/A       69  48  47 SW3G11     N/A
* THOMP F APT  PTCLDY    62  48  60 S7G14      N/A
* YAAK HILL    N/A       75  45  34 SW1        N/A
$$

MTZ008-052>055-212200-
SOUTHWEST MONTANA
CITY           SKY/WX    TMP DP  RH WIND       PRES   REMARKS
BOZEMAN        CLOUDY    64  52  65 CALM      30.09F
DILLON         PTSUNNY   68  46  45 N12       30.05F
W YELLOWSTONE  CLOUDY    61  46  58 SW14G20   30.17S
* THREE FORKS  PTSUNNY   64  64 100 N/A        N/A
* BOULDER HILL N/A       59  41  51 N6G12      N/A
* MONIDA PASS  N/A       58  47  67 SE18       N/A
* RAYNOLDS PAS N/A       62  47  58 S10G15     N/A
* WHITEHALL    N/A       67  51  57 SE8G14     N/A
* WISE RIVER   N/A       69  46  44 SE7G14     N/A
$$

MTZ009>010-012-014-046-048-049-054-212200-
EAST SLOPES AND CENTRAL MONTANA
CITY           SKY/WX    TMP DP  RH WIND       PRES   REMARKS
CUT BANK       CLOUDY    54  50  86 N16       30.15R
GREAT FALLS    CLOUDY    64  52  65 N6        30.09S
HELENA         PTCLDY    72  48  43 N5        30.05F
MALMSTROM AFB  CLOUDY    61  52  72 NW5       30.11R
* CONRAD       PTSUNNY   54  54 100 W8         N/A
* DEARBORN     N/A       62  52  70 N8         N/A
* EAST GLACIER N/A       50  45  83 E9         N/A
* MONARCH      N/A       53  46  77 NW6        N/A
* PENDROY      N/A       53  50  90 N13        N/A
* ROGERS PASS  N/A       54  49  83 NE2G9      N/A
* SAINT MARY   N/A       51  50  96 N6         N/A
* SWEET GRASS  N/A       53  53 100 N12        N/A
$$

MTZ011-013-016-021-035-040-045-047-050-051-212200-
NORTH CENTRAL MONTANA
CITY           SKY/WX    TMP DP  RH WIND       PRES   REMARKS
HAVRE          CLOUDY    66  55  68 NE8       30.04S
LEWISTOWN      CLOUDY    63  52  68 N6        30.09R
* CHESTER      N/A       62  50  65 NE11G18    N/A
* DENTON       N/A       61  52  72 W9G14      N/A
* GEYSER       N/A       62  47  58 W12G20     N/A
* JUDITH GAP   N/A       59  51  75 N12        N/A
* LOMA         N/A       68  54  61 SW3        N/A
$$

MTZ017>020-022>027-061-062-212200-
NORTHEAST MONTANA
CITY           SKY/WX    TMP DP  RH WIND       PRES   REMARKS
GLASGOW        TSTM      68  55  63 CALM      29.98S
GLENDIVE       PTCLDY    66  63  90 NE14      29.99S
JORDAN         PTSUNNY   72  55  55 NW9       29.99S
SIDNEY         CLOUDY    66  63  90 E7        29.97F
WOLF POINT     PTSUNNY   73  57  57 N/A       29.97F
* BEAVER HILL  N/A       68  58  71 N20G27     N/A
* CIRCLE       N/A       70  59  68 NE5        N/A
* LINDSAY DVD  N/A       70  56  61 NW9        N/A
* SACO         N/A       69  58  68 NW1        N/A
$$

MTZ028>042-056>058-212200-
SOUTHCENTRAL AND SOUTHEAST MONTANA
CITY           SKY/WX    TMP DP  RH WIND       PRES   REMARKS
BAKER          PTSUNNY   79  55  44 NW13      29.99R
BILLINGS       LGT RAIN  61  57  87 N9        30.07R
LIVINGSTON     CLOUDY    59  54  84 NW3       30.11R
MILES CITY     PTSUNNY   75  54  48 N/A       29.97S
* LAUREL APT   CLOUDY    64  55  73 N9         N/A
* ROUNDUP APT  CLOUDY    63  52  68 N/A        N/A
* ALZADA       N/A       79  50  36 N2         N/A
* HYSHAM       N/A       70  48  46 NE2G9      N/A
* LAME DEER    N/A       66  54  65 N9G14      N/A
* REED POINT   N/A       59  57  93 E8G13      N/A
* ROSCOE HILL  N/A       63  49  60 E9         N/A
$$

REGIONAL REPORTS...DAKOTAS
CITY           SKY/WX    TMP DP  RH WIND       PRES   REMARKS
WILLISTON      PTSUNNY   72  57  59 N9        29.96S
DICKINSON      PTCLDY    79  59  50 N9        29.93S
BEACH          N/A       70  64  81 NW20      29.99R
CROSBY         CLOUDY    66  63  90 N8        29.97S
TIOGA          PTSUNNY   73  59  62 NW13G18   29.98R
WATFORD CITY   SUNNY     73  57  57 NW13G21   29.94S
BISMARCK       SUNNY     81  64  56 N10G21    29.88R HI  83
GRAND FORKS    CLOUDY    75  70  85 S5        29.79S
FARGO          CLOUDY    75  70  85 SE7       29.79R
BUFFALO SD     SUNNY     81  54  39 N6        29.90R
RAPID CITY     PTCLDY    81  54  39 CALM      29.96S
$$

REGIONAL REPORTS...WYOMING/IDAHO/WASHINGTON
CITY           SKY/WX    TMP DP  RH WIND       PRES   REMARKS
GILLETTE       SUNNY     81  50  34 W8        29.99F
SHERIDAN       PTSUNNY   70  55  59 NW7       30.03R
CODY           CLOUDY   N/A N/A N/A N7        30.07F
YELLOWSTONE LA CLOUDY    54  45  72 CALM      30.26R
SALMON         PTCLDY    72  50  46 N7        29.98F
MULLAN PASS    PTSUNNY   57  54  90 CALM      30.11S
SAND POINT     SUNNY     75  52  45 N5        29.97F
SPOKANE        PTSUNNY   75  48  39 VRB6      29.96F

$$



USA.gov is the U.S. government's official web portal to all federal, state and local government web resources and services.